User: anonymous   Login
Location: Lafig�re
(44.4503°N, 4.0357°E)
Time: 05:08:31
(UTC+00:00)
Language:

FREGAT/IRIS - Orbit

View from above orbital plane
View from above orbital plane
View from above satellite
View from above satellite

Ground track
Ground track

The orbit data is extracted from the following two-line orbital elements,

1 35867U 09049C   20337.87660045  .00090138  49369-5  27634-3 0  9994
2 35867  96.9023  18.1392 0003806  80.9244  36.2366 15.91944980632757
Epoch (UTC): 02 December 2020 21:02:18
Eccentricity: 0.0003806
inclination: 96.9023°
perigee height: 294 km
apogee height: 299 km
right ascension of ascending node: 18.1392°
argument of perigee: 80.9244°
revolutions per day: 15.91944980
mean anomaly at epoch: 36.2366°
orbit number at epoch: 63275

The dashed part of the orbit path shows where the satellite is in the earth's shadow,  

DLR